Home > Weather > Davenport > Past weeks

Flag for USA Weather for the Past 2 Weeks in Davenport, Iowa, USA

Now
45 °F

Fog.


Feels Like: 40 °F
Forecast: 45 / 54 °F
Wind: 10 mph from Northeast

Location: Davenport Municipal Airport

Current Time: May 1, 2016 at 4:58:45 AM

Latest Report: May 1, 2016 at 3:52 AM


Visibility: 2 mi

Pressure: 29.93 "Hg

Humidity: 97%

Dew Point: 44 °F

Location of DavenportLocation

Historic Weather in Davenport — Graph

°F

Davenport Temperature Yesterday

Maximum temperature yesterday: 49 °F (at 10:52 AM)
Minimum temperature yesterday: 44 °F (at 5:52 AM)
Average temperature yesterday: 46 °F

High & Low Weather Summary for the Past Weeks

 TemperatureHumidityPressure
High83 °F (Apr 16, 3:52 PM)100% (Apr 21, 3:52 AM)30.37 "Hg (Apr 21, 3:52 AM)
Low41 °F (Apr 23, 5:52 AM)21% (Apr 17, 4:52 PM)29.61 "Hg (Apr 25, 4:52 PM)
Average57 °F72%29.99 "Hg
* Reported Apr 16 3:52 AM — May 1 3:52 AM, Davenport, Weather by CustomWeather, © 2016

Note: Actual official high and low records may vary slightly from our data, if they occured in-between our weather recording intervals... More about our weather records

Advertising

Davenport Weather History for the Previous 24 Hours

Scroll right to see more
 ConditionsComfort  
Time TempWeatherWind HumidityBarometerVisibility
3:52 AM
Sun, May 1
45 °FFog.10 mph97%29.93 "Hg2 mi
2:52 AM45 °FFog.12 mph97%29.93 "Hg2 mi
2:04 AM45 °FFog.12 mph97%29.92 "Hg3 mi
1:52 AM45 °FFog.12 mph97%29.93 "Hg2 mi
12:52 AM45 °FFog.14 mph93%29.94 "Hg4 mi
11:52 PM
Sat, Apr 30
45 °FFog.13 mph93%29.92 "Hg6 mi
10:52 PM45 °FLow clouds.14 mph93%29.91 "Hg8 mi
9:52 PM45 °FFog.15 mph93%29.91 "Hg6 mi
8:52 PM45 °FFog.21 mph93%29.90 "Hg4 mi
7:52 PM46 °FFog.18 mph89%29.90 "Hg4 mi
6:52 PM46 °FFog.20 mph93%29.89 "Hg4 mi
6:04 PM46 °FLight rain. Fog.16 mph93%29.87 "Hg2 mi
4:52 PM47 °FLight rain. Fog.18 mph90%29.86 "Hg2 mi
4:04 PM47 °FRain. Fog.22 mph93%29.82 "Hg2 mi
2:52 PM48 °FRain. Fog.18 mph93%29.82 "Hg3 mi
1:52 PM48 °FHeavy rain. Fog.21 mph93%29.84 "Hg1 mi
1:02 PM49 °FRain. Fog.23 mph90%29.82 "Hg2 mi
12:52 PM49 °FLight rain. Fog.22 mph93%29.83 "Hg3 mi
11:52 AM49 °FRain. Fog.22 mph90%29.88 "Hg1 mi
10:52 AM49 °FLight rain. Fog.22 mph90%29.87 "Hg2 mi
10:04 AM48 °FLight rain. Fog.23 mph89%29.88 "Hg2 mi
9:52 AM48 °FLight rain. Fog.18 mph89%29.90 "Hg3 mi
9:01 AM47 °FFog.22 mph90%29.90 "Hg2 mi
8:52 AM46 °FLight rain. Fog.18 mph93%29.92 "Hg3 mi
7:52 AM45 °FLight rain. Fog.15 mph93%29.94 "Hg2 mi
6:52 AM45 °FLight rain. Fog.16 mph90%29.96 "Hg2 mi
5:52 AM44 °FFog.16 mph89%29.98 "Hg4 mi
4:52 AM45 °FLight rain. Fog.16 mph86%29.99 "Hg5 mi
Weather by CustomWeather, © 2016

See weather overviewHow to use our weather pages